Back to catalog

KUIPER-00615

AliveCommunicationsLEO
NORAD 69774·PAYLOAD·🇺🇸 United States

Launched Jul 2, 2026 from Cape Canaveral Space Force Station

Loading…

Next Passes (next 24 hours)

TLE

FreshSource: CelesTrak SupGP

Epoch: Sep 14, 2026, 17:32 UTC

1 69774C 26151M   26257.73062500  .00218090  00000+0  28612-1 0  2579
2 69774  51.9000 259.6424 0000922 118.3584 161.1527 14.79620069    13

Track KUIPER-00615 in real time with AllMySat

Download on the App Store